Time,TemperatureF,DewpointF,PressureIn,WindDirection,WindDirectionDegrees,WindSpeedMPH,WindSpeedGustMPH,Humidity,HourlyPrecipIn,Conditions,Clouds,dailyrainin,SolarRadiationWatts/m^2,SoftwareType,DateUTC
2013-02-20 00:04:00,34.0,33.0,29.64,WSW,257,3.0,3.0,96,0.00,,,0.00,0,Wunderground v.1.15,2013-02-20 05:04:00,
2013-02-20 00:14:00,33.8,32.8,29.64,NE,38,2.0,2.0,96,0.00,,,0.00,0,Wunderground v.1.15,2013-02-20 05:14:00,
2013-02-20 00:19:00,33.7,32.4,29.64,NW,320,2.0,2.0,95,0.00,,,0.00,0,Wunderground v.1.15,2013-02-20 05:19:00,
2013-02-20 00:24:00,33.6,32.3,29.64,SW,232,2.0,4.0,95,0.00,,,0.00,0,Wunderground v.1.15,2013-02-20 05:24:00,
2013-02-20 00:29:00,33.5,32.2,29.64,SE,126,2.0,4.0,95,0.00,,,0.00,0,Wunderground v.1.15,2013-02-20 05:29:00,
2013-02-20 00:34:00,33.4,32.1,29.63,West,275,3.0,4.0,95,0.00,,,0.00,0,Wunderground v.1.15,2013-02-20 05:34:00,
2013-02-20 00:39:00,33.4,32.1,29.63,ESE,105,3.0,4.0,95,0.00,,,0.00,0,Wunderground v.1.15,2013-02-20 05:39:00,
2013-02-20 00:49:00,33.2,31.9,29.63,SSW,192,3.0,3.0,95,0.00,,,0.00,0,Wunderground v.1.15,2013-02-20 05:49:00,
2013-02-20 00:54:00,33.1,31.6,29.64,NW,317,2.0,2.0,94,0.00,,,0.00,0,Wunderground v.1.15,2013-02-20 05:54:00,
2013-02-20 00:59:00,33.1,31.6,29.64,ESE,114,2.0,2.0,94,0.00,,,0.00,0,Wunderground v.1.15,2013-02-20 05:59:00,
2013-02-20 01:04:00,33.0,31.5,29.64,ENE,78,3.0,3.0,94,0.00,,,0.00,0,Wunderground v.1.15,2013-02-20 06:04:00,
2013-02-20 01:09:00,33.0,31.5,29.64,South,178,2.0,3.0,94,0.00,,,0.00,0,Wunderground v.1.15,2013-02-20 06:09:00,
2013-02-20 01:14:00,33.0,31.2,29.64,WSW,252,3.0,3.0,93,0.00,,,0.00,0,Wunderground v.1.15,2013-02-20 06:14:00,
2013-02-20 01:24:00,32.8,31.3,29.65,North,10,4.0,6.0,94,0.00,,,0.00,0,Wunderground v.1.15,2013-02-20 06:24:00,
2013-02-20 01:34:00,31.9,30.4,29.66,NNE,22,5.0,5.0,94,0.00,,,0.00,0,Wunderground v.1.15,2013-02-20 06:34:00,
2013-02-20 01:39:00,31.6,30.1,29.66,North,5,4.0,5.0,94,0.00,,,0.00,0,Wunderground v.1.15,2013-02-20 06:39:00,
2013-02-20 01:44:00,31.4,30.1,29.66,NNW,346,4.0,6.0,95,0.00,,,0.00,0,Wunderground v.1.15,2013-02-20 06:44:00,
2013-02-20 01:49:00,31.2,29.9,29.66,NNW,340,4.0,6.0,95,0.00,,,0.00,0,Wunderground v.1.15,2013-02-20 06:49:00,
2013-02-20 01:59:00,30.9,29.4,29.66,NW,305,6.0,8.0,94,0.00,,,0.00,0,Wunderground v.1.15,2013-02-20 06:59:00,
2013-02-20 02:04:00,30.7,29.2,29.66,NW,307,6.0,11.0,94,0.00,,,0.00,0,Wunderground v.1.15,2013-02-20 07:04:00,
2013-02-20 02:09:00,30.6,28.8,29.66,NNW,336,6.0,11.0,93,0.00,,,0.00,0,Wunderground v.1.15,2013-02-20 07:09:00,
2013-02-20 02:14:00,30.5,28.5,29.66,NNW,335,5.0,7.0,92,0.00,,,0.00,0,Wunderground v.1.15,2013-02-20 07:14:00,
2013-02-20 02:19:00,30.4,28.1,29.66,NNW,344,5.0,7.0,91,0.00,,,0.00,0,Wunderground v.1.15,2013-02-20 07:19:00,
2013-02-20 02:29:00,30.3,27.7,29.66,NNE,13,4.0,5.0,90,0.00,,,0.00,0,Wunderground v.1.15,2013-02-20 07:29:00,
2013-02-20 02:34:00,30.2,27.6,29.67,NNW,348,4.0,4.0,90,0.00,,,0.00,0,Wunderground v.1.15,2013-02-20 07:34:00,
2013-02-20 02:39:00,30.2,27.3,29.67,North,355,4.0,4.0,89,0.00,,,0.00,0,Wunderground v.1.15,2013-02-20 07:39:00,
2013-02-20 02:44:00,30.2,27.3,29.67,North,349,4.0,4.0,89,0.00,,,0.00,0,Wunderground v.1.15,2013-02-20 07:44:00,
2013-02-20 02:49:00,30.1,27.3,29.66,NNE,15,3.0,4.0,89,0.00,,,0.00,0,Wunderground v.1.15,2013-02-20 07:49:00,
2013-02-20 02:54:00,30.1,27.3,29.66,West,281,3.0,7.0,89,0.00,,,0.00,0,Wunderground v.1.15,2013-02-20 07:54:00,
2013-02-20 02:59:00,30.0,27.2,29.66,NNE,15,3.0,7.0,89,0.00,,,0.00,0,Wunderground v.1.15,2013-02-20 07:59:00,
2013-02-20 03:09:00,29.9,27.1,29.66,NW,321,4.0,7.0,89,0.00,,,0.00,0,Wunderground v.1.15,2013-02-20 08:09:00,
2013-02-20 03:14:00,29.8,27.0,29.66,North,355,4.0,4.0,89,0.00,,,0.00,0,Wunderground v.1.15,2013-02-20 08:14:00,
2013-02-20 03:19:00,29.8,27.0,29.66,North,360,3.0,4.0,89,0.00,,,0.00,0,Wunderground v.1.15,2013-02-20 08:19:00,
2013-02-20 03:24:00,29.7,27.1,29.66,NNW,334,3.0,3.0,90,0.00,,,0.00,0,Wunderground v.1.15,2013-02-20 08:24:00,
2013-02-20 03:29:00,29.7,27.1,29.66,NNW,336,3.0,3.0,90,0.00,,,0.00,0,Wunderground v.1.15,2013-02-20 08:29:00,
2013-02-20 03:34:00,29.7,27.1,29.66,NNW,334,3.0,5.0,90,0.00,,,0.00,0,Wunderground v.1.15,2013-02-20 08:34:00,
2013-02-20 03:39:00,29.6,27.0,29.66,NW,324,4.0,5.0,90,0.00,,,0.00,0,Wunderground v.1.15,2013-02-20 08:39:00,
2013-02-20 03:44:00,29.6,27.0,29.67,NNW,335,2.0,2.0,90,0.00,,,0.00,0,Wunderground v.1.15,2013-02-20 08:44:00,
2013-02-20 03:54:00,29.5,27.2,29.67,NNW,328,3.0,4.0,91,0.00,,,0.00,0,Wunderground v.1.15,2013-02-20 08:54:00,
2013-02-20 03:59:00,29.4,27.1,29.67,NNE,19,4.0,4.0,91,0.00,,,0.00,0,Wunderground v.1.15,2013-02-20 08:59:00,
2013-02-20 04:04:00,29.3,27.0,29.67,North,5,4.0,5.0,91,0.00,,,0.00,0,Wunderground v.1.15,2013-02-20 09:04:00,
2013-02-20 04:09:00,29.2,26.9,29.67,North,360,4.0,5.0,91,0.00,,,0.00,0,Wunderground v.1.15,2013-02-20 09:09:00,
2013-02-20 04:14:00,28.9,26.6,29.67,NNW,329,6.0,7.0,91,0.00,,,0.00,0,Wunderground v.1.15,2013-02-20 09:14:00,
2013-02-20 04:19:00,28.6,26.3,29.67,North,351,6.0,7.0,91,0.00,,,0.00,0,Wunderground v.1.15,2013-02-20 09:19:00,
2013-02-20 04:29:00,28.1,25.8,29.67,NW,323,7.0,7.0,91,0.00,,,0.00,0,Wunderground v.1.15,2013-02-20 09:29:00,
2013-02-20 04:34:00,27.9,25.9,29.68,North,360,7.0,8.0,92,0.00,,,0.00,0,Wunderground v.1.15,2013-02-20 09:34:00,
2013-02-20 04:44:00,27.4,25.4,29.68,NNE,21,7.0,7.0,92,0.00,,,0.00,0,Wunderground v.1.15,2013-02-20 09:44:00,
2013-02-20 04:54:00,27.0,24.7,29.68,NNW,341,7.0,7.0,91,0.00,,,0.00,0,Wunderground v.1.15,2013-02-20 09:54:00,
2013-02-20 04:59:00,26.8,24.5,29.68,West,270,7.0,7.0,91,0.00,,,0.00,0,Wunderground v.1.15,2013-02-20 09:59:00,
2013-02-20 05:04:00,26.6,24.3,29.68,North,9,7.0,7.0,91,0.00,,,0.00,0,Wunderground v.1.15,2013-02-20 10:04:00,
2013-02-20 05:14:00,26.4,24.1,29.69,North,360,7.0,10.0,91,0.00,,,0.00,0,Wunderground v.1.15,2013-02-20 10:14:00,
2013-02-20 05:19:00,26.2,22.9,29.69,North,350,7.0,10.0,87,0.00,,,0.00,0,Wunderground v.1.15,2013-02-20 10:19:00,
2013-02-20 05:24:00,26.1,22.2,29.69,North,355,7.0,10.0,85,0.00,,,0.00,0,Wunderground v.1.15,2013-02-20 10:24:00,
2013-02-20 05:34:00,25.9,20.6,29.70,NW,322,7.0,7.0,80,0.00,,,0.00,0,Wunderground v.1.15,2013-02-20 10:34:00,
2013-02-20 05:39:00,25.9,20.0,29.70,NE,51,6.0,7.0,78,0.00,,,0.00,0,Wunderground v.1.15,2013-02-20 10:39:00,
2013-02-20 05:44:00,25.8,19.6,29.71,North,360,5.0,5.0,77,0.00,,,0.00,0,Wunderground v.1.15,2013-02-20 10:44:00,
2013-02-20 05:49:00,25.8,19.3,29.71,NNW,336,5.0,10.0,76,0.00,,,0.00,0,Wunderground v.1.15,2013-02-20 10:49:00,
2013-02-20 05:54:00,25.7,18.6,29.71,North,355,5.0,9.0,74,0.00,,,0.00,0,Wunderground v.1.15,2013-02-20 10:54:00,
2013-02-20 05:59:00,25.5,18.0,29.71,North,351,7.0,14.0,73,0.00,,,0.00,0,Wunderground v.1.15,2013-02-20 10:59:00,
2013-02-20 06:09:00,25.2,17.1,29.72,NNW,344,8.0,8.0,71,0.00,,,0.00,0,Wunderground v.1.15,2013-02-20 11:09:00,
2013-02-20 06:14:00,25.2,17.4,29.71,North,349,6.0,6.0,72,0.00,,,0.00,0,Wunderground v.1.15,2013-02-20 11:14:00,
2013-02-20 06:19:00,25.1,17.7,29.72,NW,321,4.0,6.0,73,0.00,,,0.00,0,Wunderground v.1.15,2013-02-20 11:19:00,
2013-02-20 06:29:00,24.9,17.1,29.72,North,350,4.0,9.0,72,0.00,,,0.00,0,Wunderground v.1.15,2013-02-20 11:29:00,
2013-02-20 06:39:00,24.5,16.4,29.72,NNW,347,5.0,5.0,71,0.00,,,0.00,0,Wunderground v.1.15,2013-02-20 11:39:00,
2013-02-20 06:49:00,24.2,16.1,29.73,NE,38,3.0,4.0,71,0.00,,,0.00,9,Wunderground v.1.15,2013-02-20 11:49:00,
2013-02-20 06:54:00,24.0,16.0,29.73,NW,323,3.0,4.0,71,0.00,,,0.00,12,Wunderground v.1.15,2013-02-20 11:54:00,
2013-02-20 06:59:00,24.0,16.3,29.73,ENE,78,3.0,4.0,72,0.00,,,0.00,30,Wunderground v.1.15,2013-02-20 11:59:00,
2013-02-20 07:09:00,24.0,16.3,29.74,ESE,113,1.0,3.0,72,0.00,,,0.00,37,Wunderground v.1.15,2013-02-20 12:09:00,
2013-02-20 07:14:00,24.0,16.3,29.74,North,360,2.0,2.0,72,0.00,,,0.00,40,Wunderground v.1.15,2013-02-20 12:14:00,
2013-02-20 07:19:00,24.2,16.5,29.74,North,5,1.0,5.0,72,0.00,,,0.00,107,Wunderground v.1.15,2013-02-20 12:19:00,
2013-02-20 07:24:00,24.5,16.4,29.74,WNW,292,2.0,2.0,71,0.00,,,0.00,91,Wunderground v.1.15,2013-02-20 12:24:00,
2013-02-20 07:34:00,25.2,16.5,29.75,NNE,26,3.0,3.0,69,0.00,,,0.00,127,Wunderground v.1.15,2013-02-20 12:34:00,
2013-02-20 07:44:00,25.4,17.0,29.74,WNW,301,2.0,3.0,70,0.00,,,0.00,141,Wunderground v.1.15,2013-02-20 12:44:00,
2013-02-20 07:49:00,25.6,17.2,29.75,ENE,71,1.0,3.0,70,0.00,,,0.00,153,Wunderground v.1.15,2013-02-20 12:49:00,
2013-02-20 07:59:00,26.3,17.5,29.75,WNW,295,2.0,2.0,69,0.00,,,0.00,188,Wunderground v.1.15,2013-02-20 12:59:00,
2013-02-20 08:04:00,26.7,17.6,29.75,NE,52,2.0,4.0,68,0.00,,,0.00,202,Wunderground v.1.15,2013-02-20 13:04:00,
2013-02-20 08:09:00,27.1,17.2,29.75,SE,134,3.0,4.0,66,0.00,,,0.00,218,Wunderground v.1.15,2013-02-20 13:09:00,
2013-02-20 08:19:00,27.7,16.7,29.75,NE,43,2.0,3.0,63,0.00,,,0.00,244,Wunderground v.1.15,2013-02-20 13:19:00,
2013-02-20 08:24:00,27.9,16.2,29.75,North,360,2.0,3.0,61,0.00,,,0.00,258,Wunderground v.1.15,2013-02-20 13:24:00,
2013-02-20 08:34:00,27.4,15.3,29.75,NNE,20,4.0,8.0,60,0.00,,,0.00,279,Wunderground v.1.15,2013-02-20 13:34:00,
2013-02-20 08:39:00,27.2,15.5,29.75,East,90,4.0,8.0,61,0.00,,,0.00,302,Wunderground v.1.15,2013-02-20 13:39:00,
2013-02-20 08:44:00,27.5,15.4,29.75,NNE,19,2.0,4.0,60,0.00,,,0.00,315,Wunderground v.1.15,2013-02-20 13:44:00,
2013-02-20 08:54:00,27.2,14.4,29.75,NNW,347,4.0,7.0,58,0.00,,,0.00,348,Wunderground v.1.15,2013-02-20 13:54:00,
2013-02-20 08:59:00,27.1,14.3,29.75,ENE,74,4.0,7.0,58,0.00,,,0.00,383,Wunderground v.1.15,2013-02-20 13:59:00,
2013-02-20 09:04:00,27.3,14.5,29.75,NE,38,5.0,15.0,58,0.00,,,0.00,371,Wunderground v.1.15,2013-02-20 14:04:00,
2013-02-20 09:09:00,27.4,14.5,29.75,NW,323,6.0,15.0,58,0.00,,,0.00,425,Wunderground v.1.15,2013-02-20 14:09:00,
2013-02-20 09:14:00,27.8,14.9,29.75,North,11,7.0,7.0,58,0.00,,,0.00,538,Wunderground v.1.15,2013-02-20 14:14:00,
2013-02-20 09:24:00,28.4,15.1,29.75,NW,310,5.0,5.0,57,0.00,,,0.00,264,Wunderground v.1.15,2013-02-20 14:24:00,
2013-02-20 09:29:00,27.8,14.5,29.75,NNW,333,5.0,5.0,57,0.00,,,0.00,295,Wunderground v.1.15,2013-02-20 14:29:00,
2013-02-20 09:34:00,28.0,14.3,29.75,NE,37,4.0,4.0,56,0.00,,,0.00,206,Wunderground v.1.15,2013-02-20 14:34:00,
2013-02-20 09:39:00,27.8,14.5,29.75,NNE,20,5.0,5.0,57,0.00,,,0.00,214,Wunderground v.1.15,2013-02-20 14:39:00,
2013-02-20 09:49:00,28.4,14.7,29.75,NNW,345,4.0,7.0,56,0.00,,,0.00,677,Wunderground v.1.15,2013-02-20 14:49:00,
2013-02-20 09:54:00,28.3,14.2,29.75,North,355,5.0,7.0,55,0.00,,,0.00,677,Wunderground v.1.15,2013-02-20 14:54:00,
2013-02-20 09:59:00,28.0,14.3,29.76,NNE,22,5.0,7.0,56,0.00,,,0.00,251,Wunderground v.1.15,2013-02-20 14:59:00,
2013-02-20 10:04:00,28.5,14.8,29.76,NW,315,4.0,4.0,56,0.00,,,0.00,628,Wunderground v.1.15,2013-02-20 15:04:00,
2013-02-20 10:09:00,29.2,15.4,29.76,North,10,4.0,4.0,56,0.00,,,0.00,738,Wunderground v.1.15,2013-02-20 15:09:00,
2013-02-20 10:19:00,29.1,14.9,29.76,North,360,4.0,6.0,55,0.00,,,0.00,700,Wunderground v.1.15,2013-02-20 15:19:00,
2013-02-20 10:24:00,29.1,14.9,29.76,WSW,255,4.0,4.0,55,0.00,,,0.01,719,Wunderground v.1.15,2013-02-20 15:24:00,
2013-02-20 10:29:00,28.8,14.6,29.76,NNW,335,3.0,9.0,55,0.00,,,0.01,288,Wunderground v.1.15,2013-02-20 15:29:00,
2013-02-20 10:34:00,28.3,13.8,29.76,NW,304,5.0,8.0,54,0.00,,,0.01,234,Wunderground v.1.15,2013-02-20 15:34:00,
2013-02-20 10:39:00,27.7,13.2,29.76,NNE,18,5.0,9.0,54,0.00,,,0.01,216,Wunderground v.1.15,2013-02-20 15:39:00,
2013-02-20 10:44:00,27.6,14.3,29.76,West,277,4.0,6.0,57,0.00,,,0.01,237,Wunderground v.1.15,2013-02-20 15:44:00,
2013-02-20 10:54:00,27.3,13.2,29.76,West,279,5.0,5.0,55,0.00,,,0.01,304,Wunderground v.1.15,2013-02-20 15:54:00,
2013-02-20 10:59:00,27.4,13.7,29.76,NW,305,4.0,5.0,56,0.00,,,0.01,350,Wunderground v.1.15,2013-02-20 15:59:00,
2013-02-20 11:04:00,27.8,14.5,29.75,NW,311,4.0,4.0,57,0.00,,,0.01,251,Wunderground v.1.15,2013-02-20 16:04:00,
2013-02-20 11:14:00,28.4,14.7,29.75,NNE,19,5.0,10.0,56,0.00,,,0.01,628,Wunderground v.1.15,2013-02-20 16:14:00,
2013-02-20 11:19:00,28.4,14.3,29.75,NNW,348,5.0,10.0,55,0.00,,,0.02,650,Wunderground v.1.15,2013-02-20 16:19:00,
2013-02-20 11:24:00,28.8,13.8,29.75,North,9,5.0,5.0,53,0.00,,,0.02,635,Wunderground v.1.15,2013-02-20 16:24:00,
2013-02-20 11:29:00,29.0,13.6,29.75,NE,53,4.0,5.0,52,0.00,,,0.02,636,Wunderground v.1.15,2013-02-20 16:29:00,
2013-02-20 11:39:00,28.5,13.5,29.76,NNE,31,4.0,7.0,53,0.00,,,0.02,468,Wunderground v.1.15,2013-02-20 16:39:00,
2013-02-20 11:44:00,28.6,13.6,29.75,NNW,348,4.0,5.0,53,0.00,,,0.02,443,Wunderground v.1.15,2013-02-20 16:44:00,
2013-02-20 11:49:00,28.4,13.4,29.75,ENE,73,4.0,5.0,53,0.00,,,0.02,454,Wunderground v.1.15,2013-02-20 16:49:00,
2013-02-20 11:54:00,28.5,14.4,29.75,SE,140,4.0,4.0,55,0.00,,,0.02,339,Wunderground v.1.15,2013-02-20 16:54:00,
2013-02-20 12:04:00,28.6,13.6,29.74,WSW,246,4.0,7.0,53,0.00,,,0.02,701,Wunderground v.1.15,2013-02-20 17:04:00,
2013-02-20 12:09:00,28.4,13.9,29.75,SW,228,4.0,7.0,54,0.00,,,0.02,682,Wunderground v.1.15,2013-02-20 17:09:00,
2013-02-20 12:14:00,28.5,13.5,29.74,ESE,115,3.0,3.0,53,0.00,,,0.02,285,Wunderground v.1.15,2013-02-20 17:14:00,
2013-02-20 12:19:00,28.2,13.7,29.74,NNW,342,4.0,4.0,54,0.00,,,0.02,290,Wunderground v.1.15,2013-02-20 17:19:00,
2013-02-20 12:24:00,27.9,13.4,29.74,NNW,339,5.0,7.0,54,0.00,,,0.02,404,Wunderground v.1.15,2013-02-20 17:24:00,
2013-02-20 12:29:00,27.9,13.4,29.74,North,5,5.0,7.0,54,0.00,,,0.02,371,Wunderground v.1.15,2013-02-20 17:29:00,
2013-02-20 12:39:00,28.5,13.5,29.74,NNE,23,3.0,8.0,53,0.00,,,0.02,246,Wunderground v.1.15,2013-02-20 17:39:00,
2013-02-20 12:44:00,28.3,13.8,29.74,SW,235,4.0,4.0,54,0.00,,,0.02,302,Wunderground v.1.15,2013-02-20 17:44:00,
2013-02-20 12:54:00,28.2,13.7,29.74,East,94,5.0,5.0,54,0.00,,,0.02,299,Wunderground v.1.15,2013-02-20 17:54:00,
2013-02-20 12:59:00,29.1,13.6,29.74,ENE,69,4.0,5.0,52,0.00,,,0.02,803,Wunderground v.1.15,2013-02-20 17:59:00,
2013-02-20 13:04:00,29.4,13.5,29.73,NE,42,4.0,4.0,51,0.00,,,0.02,694,Wunderground v.1.15,2013-02-20 18:04:00,
2013-02-20 13:09:00,29.3,12.9,29.74,NNE,15,5.0,5.0,50,0.00,,,0.02,197,Wunderground v.1.15,2013-02-20 18:09:00,
2013-02-20 13:19:00,28.0,12.6,29.74,WNW,286,7.0,10.0,52,0.00,,,0.02,279,Wunderground v.1.15,2013-02-20 18:19:00,
2013-02-20 13:24:00,28.0,12.2,29.74,NNW,341,6.0,6.0,51,0.00,,,0.02,710,Wunderground v.1.15,2013-02-20 18:24:00,
2013-02-20 13:29:00,28.5,12.2,29.74,West,278,5.0,6.0,50,0.00,,,0.02,176,Wunderground v.1.15,2013-02-20 18:29:00,
2013-02-20 13:39:00,28.1,11.8,29.74,NNW,348,4.0,5.0,50,0.00,,,0.02,169,Wunderground v.1.15,2013-02-20 18:39:00,
2013-02-20 13:44:00,27.5,11.7,29.74,NE,37,3.0,3.0,51,0.00,,,0.02,195,Wunderground v.1.15,2013-02-20 18:44:00,
2013-02-20 13:49:00,27.9,11.6,29.73,NNE,15,5.0,5.0,50,0.00,,,0.02,195,Wunderground v.1.15,2013-02-20 18:49:00,
2013-02-20 13:54:00,28.2,11.5,29.73,WSW,252,5.0,5.0,49,0.00,,,0.02,448,Wunderground v.1.15,2013-02-20 18:54:00,
2013-02-20 13:59:00,28.4,12.6,29.74,North,11,6.0,6.0,51,0.00,,,0.02,301,Wunderground v.1.15,2013-02-20 18:59:00,
2013-02-20 14:09:00,28.4,12.1,29.74,SE,126,4.0,5.0,50,0.00,,,0.02,404,Wunderground v.1.15,2013-02-20 19:09:00,
2013-02-20 14:14:00,28.3,11.6,29.74,NNW,336,5.0,5.0,49,0.00,,,0.02,436,Wunderground v.1.15,2013-02-20 19:14:00,
2013-02-20 14:19:00,28.2,11.9,29.74,NW,306,5.0,5.0,50,0.00,,,0.02,436,Wunderground v.1.15,2013-02-20 19:19:00,
2013-02-20 14:24:00,27.9,12.1,29.74,ENE,62,5.0,5.0,51,0.00,,,0.02,195,Wunderground v.1.15,2013-02-20 19:24:00,
2013-02-20 14:34:00,27.8,12.4,29.75,SSW,205,4.0,4.0,52,0.00,,,0.02,202,Wunderground v.1.15,2013-02-20 19:34:00,
2013-02-20 14:39:00,27.8,12.9,29.75,NW,316,4.0,7.0,53,0.00,,,0.02,251,Wunderground v.1.15,2013-02-20 19:39:00,
2013-02-20 14:49:00,27.6,12.7,29.75,ENE,67,4.0,4.0,53,0.00,,,0.02,211,Wunderground v.1.15,2013-02-20 19:49:00,
2013-02-20 14:54:00,27.1,12.6,29.75,NNE,26,8.0,8.0,54,0.00,,,0.02,137,Wunderground v.1.15,2013-02-20 19:54:00,
2013-02-20 15:04:00,26.6,11.7,29.76,West,272,5.0,11.0,53,0.00,,,0.02,111,Wunderground v.1.15,2013-02-20 20:04:00,
2013-02-20 15:09:00,26.4,12.0,29.76,NE,55,5.0,11.0,54,0.00,,,0.02,218,Wunderground v.1.15,2013-02-20 20:09:00,
2013-02-20 15:14:00,26.7,13.1,29.76,ENE,62,5.0,10.0,56,0.00,,,0.02,199,Wunderground v.1.15,2013-02-20 20:14:00,
2013-02-20 15:19:00,26.8,13.2,29.76,North,9,4.0,10.0,56,0.00,,,0.02,181,Wunderground v.1.15,2013-02-20 20:19:00,
2013-02-20 15:24:00,26.7,13.1,29.77,WNW,286,5.0,5.0,56,0.00,,,0.02,176,Wunderground v.1.15,2013-02-20 20:24:00,
2013-02-20 15:34:00,26.3,12.3,29.77,North,360,6.0,6.0,55,0.00,,,0.02,79,Wunderground v.1.15,2013-02-20 20:34:00,
2013-02-20 15:39:00,26.0,11.6,29.77,NNW,341,7.0,10.0,54,0.00,,,0.02,139,Wunderground v.1.15,2013-02-20 20:39:00,
2013-02-20 15:44:00,25.8,11.8,29.77,NW,322,7.0,10.0,55,0.00,,,0.02,72,Wunderground v.1.15,2013-02-20 20:44:00,
2013-02-20 15:54:00,25.3,11.4,29.78,North,5,6.0,8.0,55,0.00,,,0.02,98,Wunderground v.1.15,2013-02-20 20:54:00,
2013-02-20 15:59:00,25.3,11.8,29.78,North,360,6.0,8.0,56,0.00,,,0.02,93,Wunderground v.1.15,2013-02-20 20:59:00,
2013-02-20 16:04:00,25.2,12.5,29.78,NNE,24,5.0,6.0,58,0.00,,,0.02,65,Wunderground v.1.15,2013-02-20 21:04:00,
2013-02-20 16:14:00,25.0,12.3,29.78,NNE,26,4.0,4.0,58,0.00,,,0.02,54,Wunderground v.1.15,2013-02-20 21:14:00,
2013-02-20 16:19:00,24.8,11.7,29.79,North,351,5.0,5.0,57,0.00,,,0.02,63,Wunderground v.1.15,2013-02-20 21:19:00,
2013-02-20 16:24:00,24.7,11.6,29.79,NNE,25,6.0,6.0,57,0.00,,,0.02,56,Wunderground v.1.15,2013-02-20 21:24:00,
2013-02-20 16:29:00,24.5,11.8,29.78,ESE,111,6.0,6.0,58,0.00,,,0.02,54,Wunderground v.1.15,2013-02-20 21:29:00,
2013-02-20 16:34:00,24.4,11.3,29.79,NW,320,6.0,6.0,57,0.00,,,0.02,39,Wunderground v.1.15,2013-02-20 21:34:00,
2013-02-20 16:39:00,24.4,11.7,29.79,NE,52,5.0,6.0,58,0.00,,,0.02,40,Wunderground v.1.15,2013-02-20 21:39:00,
2013-02-20 16:49:00,24.2,11.5,29.78,NW,315,6.0,8.0,58,0.00,,,0.02,35,Wunderground v.1.15,2013-02-20 21:49:00,
2013-02-20 16:54:00,24.1,10.6,29.79,NE,36,7.0,7.0,56,0.00,,,0.02,42,Wunderground v.1.15,2013-02-20 21:54:00,
2013-02-20 16:59:00,24.1,10.6,29.79,North,5,6.0,7.0,56,0.00,,,0.02,44,Wunderground v.1.15,2013-02-20 21:59:00,
2013-02-20 17:04:00,24.0,10.6,29.79,NNE,20,6.0,7.0,56,0.00,,,0.02,39,Wunderground v.1.15,2013-02-20 22:04:00,
2013-02-20 17:14:00,23.5,10.1,29.80,NNE,24,6.0,7.0,56,0.00,,,0.02,18,Wunderground v.1.15,2013-02-20 22:14:00,
2013-02-20 17:19:00,23.3,9.9,29.80,NNW,348,5.0,7.0,56,0.00,,,0.02,11,Wunderground v.1.15,2013-02-20 22:19:00,
2013-02-20 17:24:00,23.0,9.6,29.80,NNE,26,6.0,7.0,56,0.00,,,0.02,7,Wunderground v.1.15,2013-02-20 22:24:00,
2013-02-20 17:29:00,22.9,9.9,29.80,South,191,6.0,7.0,57,0.00,,,0.02,5,Wunderground v.1.15,2013-02-20 22:29:00,
2013-02-20 17:39:00,22.5,10.3,29.80,SSW,205,3.0,4.0,59,0.00,,,0.02,0,Wunderground v.1.15,2013-02-20 22:39:00,
2013-02-20 17:44:00,22.4,10.2,29.80,ENE,74,4.0,4.0,59,0.00,,,0.02,0,Wunderground v.1.15,2013-02-20 22:44:00,
2013-02-20 17:49:00,22.3,10.5,29.80,North,350,4.0,4.0,60,0.00,,,0.02,0,Wunderground v.1.15,2013-02-20 22:49:00,
2013-02-20 17:54:00,22.2,10.0,29.81,North,5,3.0,3.0,59,0.00,,,0.02,0,Wunderground v.1.15,2013-02-20 22:54:00,
2013-02-20 18:04:00,22.0,9.1,29.81,SSW,206,5.0,5.0,57,0.00,,,0.02,0,Wunderground v.1.15,2013-02-20 23:04:00,
2013-02-20 18:09:00,22.0,8.7,29.82,NNE,29,6.0,6.0,56,0.00,,,0.02,0,Wunderground v.1.15,2013-02-20 23:09:00,
2013-02-20 18:14:00,22.0,8.7,29.82,North,5,5.0,5.0,56,0.00,,,0.02,0,Wunderground v.1.15,2013-02-20 23:14:00,
2013-02-20 18:19:00,21.9,8.6,29.82,ENE,74,4.0,5.0,56,0.00,,,0.02,0,Wunderground v.1.15,2013-02-20 23:19:00,
2013-02-20 18:24:00,21.8,8.5,29.82,NE,53,4.0,4.0,56,0.00,,,0.02,0,Wunderground v.1.15,2013-02-20 23:24:00,
2013-02-20 18:34:00,21.6,7.9,29.82,North,355,5.0,5.0,55,0.00,,,0.02,0,Wunderground v.1.15,2013-02-20 23:34:00,
2013-02-20 18:39:00,21.6,7.9,29.83,NNW,333,6.0,6.0,55,0.00,,,0.02,0,Wunderground v.1.15,2013-02-20 23:39:00,
2013-02-20 18:49:00,21.5,8.2,29.83,North,9,3.0,4.0,56,0.00,,,0.02,0,Wunderground v.1.15,2013-02-20 23:49:00,
2013-02-20 18:59:00,21.2,8.7,29.83,North,355,2.0,3.0,58,0.00,,,0.02,0,Wunderground v.1.15,2013-02-20 23:59:00,
2013-02-20 19:04:00,21.1,8.6,29.83,ENE,62,2.0,2.0,58,0.00,,,0.02,0,Wunderground v.1.15,2013-02-21 00:04:00,
2013-02-20 19:14:00,20.8,8.7,29.83,North,5,4.0,6.0,59,0.00,,,0.02,0,Wunderground v.1.15,2013-02-21 00:14:00,
2013-02-20 19:19:00,20.8,8.7,29.83,North,5,4.0,6.0,59,0.00,,,0.02,0,Wunderground v.1.15,2013-02-21 00:19:00,
2013-02-20 19:24:00,20.7,9.0,29.83,NNE,26,5.0,5.0,60,0.00,,,0.02,0,Wunderground v.1.15,2013-02-21 00:24:00,
2013-02-20 19:29:00,20.6,8.9,29.83,NNW,345,3.0,5.0,60,0.00,,,0.02,0,Wunderground v.1.15,2013-02-21 00:29:00,
2013-02-20 19:34:00,20.4,9.1,29.83,NNE,27,3.0,4.0,61,0.00,,,0.02,0,Wunderground v.1.15,2013-02-21 00:34:00,
2013-02-20 19:39:00,20.3,9.0,29.83,NNE,21,4.0,4.0,61,0.00,,,0.02,0,Wunderground v.1.15,2013-02-21 00:39:00,
2013-02-20 19:49:00,20.2,9.6,29.83,NNE,23,5.0,5.0,63,0.00,,,0.02,0,Wunderground v.1.15,2013-02-21 00:49:00,
2013-02-20 19:54:00,20.1,9.5,29.83,ENE,67,4.0,4.0,63,0.00,,,0.02,0,Wunderground v.1.15,2013-02-21 00:54:00,
2013-02-20 19:59:00,20.0,9.4,29.83,SSW,192,5.0,5.0,63,0.00,,,0.02,0,Wunderground v.1.15,2013-02-21 00:59:00,
2013-02-20 20:04:00,19.9,9.7,29.83,NW,306,4.0,6.0,64,0.00,,,0.02,0,Wunderground v.1.15,2013-02-21 01:04:00,
2013-02-20 20:09:00,19.8,9.6,29.83,NNE,13,3.0,6.0,64,0.00,,,0.02,0,Wunderground v.1.15,2013-02-21 01:09:00,
2013-02-20 20:14:00,19.7,9.5,29.83,ENE,69,4.0,4.0,64,0.00,,,0.02,0,Wunderground v.1.15,2013-02-21 01:14:00,
2013-02-20 20:19:00,19.7,9.5,29.83,West,270,4.0,4.0,64,0.00,,,0.02,0,Wunderground v.1.15,2013-02-21 01:19:00,
2013-02-20 20:29:00,19.5,9.3,29.82,East,92,3.0,3.0,64,0.00,,,0.02,0,Wunderground v.1.15,2013-02-21 01:29:00,
2013-02-20 20:39:00,19.5,9.6,29.82,ENE,65,4.0,4.0,65,0.00,,,0.02,0,Wunderground v.1.15,2013-02-21 01:39:00,
2013-02-20 20:49:00,19.3,9.8,29.83,NE,46,4.0,4.0,66,0.00,,,0.02,0,Wunderground v.1.15,2013-02-21 01:49:00,
2013-02-20 20:54:00,19.3,9.8,29.83,South,187,4.0,4.0,66,0.00,,,0.02,0,Wunderground v.1.15,2013-02-21 01:54:00,
2013-02-20 21:04:00,19.4,9.9,29.83,WSW,253,4.0,4.0,66,0.00,,,0.02,0,Wunderground v.1.15,2013-02-21 02:04:00,
2013-02-20 21:14:00,19.3,10.1,29.84,ENE,68,4.0,4.0,67,0.00,,,0.02,0,Wunderground v.1.15,2013-02-21 02:14:00,
2013-02-20 21:19:00,19.2,10.0,29.84,West,265,3.0,4.0,67,0.00,,,0.02,0,Wunderground v.1.15,2013-02-21 02:19:00,
2013-02-20 21:24:00,19.1,10.3,29.84,NNW,346,2.0,2.0,68,0.00,,,0.02,0,Wunderground v.1.15,2013-02-21 02:24:00,
2013-02-20 21:29:00,19.0,10.2,29.84,North,360,2.0,3.0,68,0.00,,,0.02,0,Wunderground v.1.15,2013-02-21 02:29:00,
2013-02-20 21:34:00,19.0,10.2,29.84,NW,325,3.0,3.0,68,0.00,,,0.02,0,Wunderground v.1.15,2013-02-21 02:34:00,
2013-02-20 21:39:00,19.0,10.5,29.85,North,351,4.0,8.0,69,0.00,,,0.02,0,Wunderground v.1.15,2013-02-21 02:39:00,
2013-02-20 21:49:00,19.1,10.9,29.86,ENE,57,3.0,4.0,70,0.00,,,0.02,0,Wunderground v.1.15,2013-02-21 02:49:00,
2013-02-20 21:54:00,19.0,10.8,29.86,NNE,19,2.0,2.0,70,0.00,,,0.02,0,Wunderground v.1.15,2013-02-21 02:54:00,
2013-02-20 22:04:00,19.0,10.8,29.87,NE,38,3.0,3.0,70,0.00,,,0.02,0,Wunderground v.1.15,2013-02-21 03:04:00,
2013-02-20 22:09:00,18.9,10.7,29.87,North,5,3.0,3.0,70,0.00,,,0.02,0,Wunderground v.1.15,2013-02-21 03:09:00,
2013-02-20 22:19:00,18.8,10.9,29.88,North,360,3.0,3.0,71,0.00,,,0.02,0,Wunderground v.1.15,2013-02-21 03:19:00,
2013-02-20 22:24:00,18.8,10.9,29.88,NNE,24,3.0,3.0,71,0.00,,,0.02,0,Wunderground v.1.15,2013-02-21 03:24:00,
2013-02-20 22:29:00,18.8,10.9,29.89,ESE,107,2.0,3.0,71,0.00,,,0.02,0,Wunderground v.1.15,2013-02-21 03:29:00,
2013-02-20 22:34:00,18.8,10.9,29.89,North,5,2.0,2.0,71,0.00,,,0.02,0,Wunderground v.1.15,2013-02-21 03:34:00,
2013-02-20 22:39:00,18.8,10.9,29.88,North,11,2.0,2.0,71,0.00,,,0.02,0,Wunderground v.1.15,2013-02-21 03:39:00,
2013-02-20 22:49:00,18.8,11.3,29.88,NNW,348,3.0,3.0,72,0.00,,,0.02,0,Wunderground v.1.15,2013-02-21 03:49:00,
2013-02-20 22:54:00,18.8,11.3,29.87,NE,41,2.0,2.0,72,0.00,,,0.02,0,Wunderground v.1.15,2013-02-21 03:54:00,
2013-02-20 23:04:00,18.9,11.4,29.88,NE,42,2.0,3.0,72,0.00,,,0.02,0,Wunderground v.1.15,2013-02-21 04:04:00,
2013-02-20 23:14:00,19.1,11.9,29.88,North,360,2.0,3.0,73,0.00,,,0.02,0,Wunderground v.1.15,2013-02-21 04:14:00,
2013-02-20 23:19:00,19.1,11.6,29.88,East,101,2.0,3.0,72,0.00,,,0.02,0,Wunderground v.1.15,2013-02-21 04:19:00,
2013-02-20 23:24:00,19.1,11.9,29.88,South,182,2.0,2.0,73,0.00,,,0.02,0,Wunderground v.1.15,2013-02-21 04:24:00,
2013-02-20 23:29:00,19.1,11.6,29.88,WSW,252,2.0,2.0,72,0.00,,,0.02,0,Wunderground v.1.15,2013-02-21 04:29:00,
2013-02-20 23:34:00,19.1,11.9,29.87,NE,38,2.0,4.0,73,0.00,,,0.02,0,Wunderground v.1.15,2013-02-21 04:34:00,
2013-02-20 23:39:00,19.0,11.8,29.87,WNW,287,1.0,4.0,73,0.00,,,0.02,0,Wunderground v.1.15,2013-02-21 04:39:00,
2013-02-20 23:44:00,18.9,11.7,29.87,NE,34,2.0,2.0,73,0.00,,,0.02,0,Wunderground v.1.15,2013-02-21 04:44:00,
2013-02-20 23:49:00,18.9,11.7,29.88,North,5,3.0,3.0,73,0.00,,,0.02,0,Wunderground v.1.15,2013-02-21 04:49:00,
2013-02-20 23:54:00,19.1,12.2,29.88,East,82,4.0,4.0,74,0.00,,,0.02,0,Wunderground v.1.15,2013-02-21 04:54:00,
2013-02-20 23:59:00,19.1,12.2,29.89,WNW,283,3.0,4.0,74,0.00,,,0.02,0,Wunderground v.1.15,2013-02-21 04:59:00,